Voltar ao catálogo

STARLINK-3374

AtivoComunicaçõesVLEO
NORAD 51112·PAYLOAD·🇺🇸 United States

Lançado Jan 19, 2022 de Cape Canaveral Space Force Station

Loading…

Próximas Passagens (próximas 24 horas)

TLE

AtualizadoSource: CelesTrak SupGP

Época: Sep 14, 2026, 20:26 UTC

1 51112C 22005J   26257.85187500 -.00031808  00000+0 -93972-3 0  2576
2 51112  53.1576 152.1876 0001278  95.3839 169.2759 15.34407914    12

Acompanhe STARLINK-3374 em tempo real com AllMySat

Download on the App Store